Miscellaneous Local Product
Issued by NWS Hastings, NE

Home | Current Version | Previous Version | Graphics & Text | Print | Product List | Glossary On
Versions: 1 2 3 4 5 6 7 8 9 10 11 12 13 14 15 16 17 18 19 20 21 22 23 24 25 26 27 28 29 30 31 32 33 34 35 36 37 38 39 40 41 42 43 44 45 46 47 48 49 50
000
AXUS43 KGID 272202
MISGRI

GID CWA HOURLY WEATHER ROUNDUP
NATIONAL WEATHER SERVICE HASTINGS NE
500 PM CDT THU AUG 27 2015

NOTE: "FAIR" INDICATES FEW OR NO CLOUDS BELOW 12,000 FEET WITH NO
SIGNIFICANT WEATHER AND/OR OBSTRUCTIONS TO VISIBILITY.

...SOUTH CENTRAL NEBRASKA...

CITY           SKY/WX    TMP DP  RH WIND       PRES   REMARKS
GRAND ISLAND   PTSUNNY   80  70  71 SE13G22   29.86F
HASTINGS       FAIR      87  70  56 SE17G25   29.84F HX  92
KEARNEY        FAIR      88  72  58 SE18G28   29.82F HX  94
ORD            FAIR      82  69  64 SE8       29.85F
YORK           FAIR      82  68  61 S20       29.89S
AURORA         DRIZZLE   81  69  66 S13G18    29.88F
LEXINGTON      FAIR      90  71  53 SE15      29.82F HX  95
HOLDREGE       FAIR      91  65  42 SE21G30   29.80F HX  92
HEBRON         FAIR      84  64  50 S15G24    29.89S

...NEBRASKA PANHANDLE...

CITY           SKY/WX    TMP DP  RH WIND       PRES   REMARKS
CHADRON        CLOUDY    78  55  44 NE10      30.02F
ALLIANCE       FAIR      77  56  48 N18G26    30.03R
SCOTTSBLUFF    FAIR      83  55  38 N13       30.04S
SIDNEY         FAIR      87  58  37 N23G30    30.02S

...WESTERN AND NORTH CENTRAL NEBRASKA...

CITY           SKY/WX    TMP DP  RH WIND       PRES   REMARKS
VALENTINE      NOT AVBL
AINSWORTH      PTSUNNY   77  68  74 NE12      29.92R
ONEILL         DRIZZLE   78  72  81 E7        29.89F
BROKEN BOW     FAIR      83  70  64 SE7       29.87F
IMPERIAL       FAIR      92  56  29 N10       29.89F HX  90
NORTH PLATTE   FAIR      88  63  43 VRB5      29.85F
MCCOOK         FAIR      95  56  26 W10       29.83F HX  93

...EASTERN NEBRASKA...

CITY           SKY/WX    TMP DP  RH WIND       PRES   REMARKS
NORFOLK        PTSUNNY   80  69  69 SE18G26   29.90R
SO SIOUX CITY  FAIR      79  67  66 SE13      29.92R
TEKAMAH        FAIR      80  69  69 S10       29.93S
COLUMBUS       PTSUNNY  N/A N/A N/A S10G20    29.89F
ALBION         FAIR      80  68  67 SE9       29.88F
OMAHA EPPLEY   CLOUDY    83  66  56 S20       29.93S
OFFUTT AFB     FAIR      81  67  61 S16G22    29.92F
MILLARD        FAIR      81  68  64 S14G24    29.93F
LINCOLN        FAIR      83  66  56 S22G33    29.91S
NEBRASKA CITY  FAIR      79  61  53 S21G26    29.94F
BEATRICE       FAIR      82  66  59 S17       29.91F
FALLS CITY     FAIR      80  66  62 S13       29.95F

...NORTHERN KANSAS...

CITY           SKY/WX    TMP DP  RH WIND       PRES   REMARKS
GOODLAND       PTSUNNY   92  49  22 NW10      29.93F
HILL CITY      FAIR      99  58  25 S18G28    29.81F HX  98
NORTON         CLEAR     88  52  29 SW6       29.81F
PHILLIPSBURG   SUNNY     95  57  28 S6        29.80F HX  94
SMITH CENTER   MOSUNNY   81  72  74 E14G23    29.84F
HAYS           PTSUNNY   95  61  31 S25G37    29.82F HX  95
RUSSELL        FAIR      90  65  43 S32G40    29.84F HX  92
CONCORDIA      FAIR      86  65  49 S24G35    29.87F
SALINA         FAIR      88  64  44 S21G36    29.89F
TOPEKA         FAIR      77  66  68 S10G21    29.99F



USA.gov is the U.S. government's official web portal to all federal, state and local government web resources and services.